User: anonymous
Location: Lawrence Hall of Science
(37.8785°N, 122.2415°W)
Time: 03:10:43
(UTC-07:00)
Language:

Cosmos 1461 - Orbit

View from above orbital plane
View from above orbital plane
View from above satellite
View from above satellite

Ground track
Ground track

The orbit data is extracted from the following two-line orbital elements,

1 14064U 83044A   14241.42072905  .00003379  00000-0  34703-3 0  6051
2 14064 065.0049 201.7438 0093447 089.2144 051.2970 14.88870386570752
Epoch (UTC): 29 August 2014 10:05:50
Eccentricity: 0.0093447
inclination: 65.0049°
perigee height: 536 km
apogee height: 666 km
right ascension of ascending node: 201.7438°
argument of perigee: 89.2144°
revolutions per day: 14.88870386
mean anomaly at epoch: 51.2970°
orbit number at epoch: 57075

The dashed part of the orbit path shows where the satellite is in the earth's shadow,  

DLR